Regional Weather Roundup
Issued by NWS

Home | Current Version | Previous Version | Graphics & Text | Print | Product List | Glossary On
Versions: 1 2 3 4 5 6 7 8 9 10 11 12 13 14 15 16 17 18 19 20 21 22 23 24 25 26 27 28 29 30 31 32 33 34 35 36 37 38 39 40 41 42 43 44 45 46 47 48 49 50
000
ASUS43 KDMX 031307
RWRIA

WEATHER ROUNDUP FOR IOWA
NATIONAL WEATHER SERVICE DES MOINES IA
800 AM CDT FRI JUL 03 2015

NOTE: "FAIR" INDICATES FEW OR NO CLOUDS BELOW 12,000 FEET WITH NO
SIGNIFICANT WEATHER AND/OR OBSTRUCTIONS TO VISIBILITY.

* - THESE STATIONS ARE NOT NWS STATIONS...THUS NOT UNDER NWS
QUALITY CONTROL.  THEY ALSO DO NOT REPORT WEATHER SUCH
AS PRECIPITATION OR FOG.

IAZ001>003-012>014-020>022-031>034-043>046-031400-
   NORTHWEST IOWA

CITY           SKY/WX    TMP DP  RH WIND       PRES   REMARKS
CARROLL *      SUNNY     57  55  94 CALM      30.01S
CHEROKEE *     FOG       52  52 100 CALM      30.03R VSB<1/4
DENISON *      SUNNY     55  55 100 CALM      30.01R
LE MARS *      FOG       54  54 100 CALM      30.03S VSB 0
ORANGE CITY *  MOSUNNY   57  55  94 CALM      30.02F
SHELDON *      FOG       54  54 100 MISG      30.01F VSB 0
SIOUX CITY     MOSUNNY   57  55  93 CALM      30.02S
SPENCER        PTSUNNY   53  51  93 CALM      30.03R FOG
STORM LAKE *   SUNNY     59  57  94 CALM      30.03S
$$

IAZ055>058-069>071-079>083-090>094-031400-
   SOUTHWEST IOWA

CITY           SKY/WX    TMP DP  RH WIND       PRES   REMARKS
ATLANTIC *     SUNNY     59  59 100 CALM      30.01S
AUDUBON *      SUNNY     59  55  88 CALM      30.02S
CLARINDA *     SUNNY     61  61 100 N5        30.01S
COUNCIL BLFS * SUNNY     59  57  94 CALM      30.01S
CRESTON *      SUNNY     61  57  88 NE6       30.00S
HARLAN  *      SUNNY     59  59 100 N5        30.04S
LAMONI         SUNNY     63  59  87 NE6       29.99R
RED OAK *      SUNNY     61  59  94 NE3       30.01S
SHENANDOAH *   SUNNY     61  59  94 CALM      30.01S
$$

IAZ047>049-059>061-072>074-084-031400-
   CENTRAL IOWA

CITY           SKY/WX    TMP DP  RH WIND       PRES   REMARKS
AMES           SUNNY     59  55  87 N3        30.01R
ANKENY *       SUNNY     59  57  94 CALM      30.00R
CHARITON *     SUNNY     61  59  94 N5        29.99S
DES MOINES     SUNNY     64  55  72 NE3       29.99S
GRINNELL*      SUNNY     63  55  77 CALM      30.01R
KNOXVILLE *    SUNNY     64  55  72 N5        29.98S
MARSHALLTOWN   SUNNY     60  57  89 CALM      30.00R
PELLA *        MOSUNNY   64  59  82 CALM      30.01R
PERRY *          N/A     61  55  82 NE5       30.01S
$$

IAZ004>006-015-016-023>025-035-036-031400-
   NORTH CENTRAL IOWA

CITY           SKY/WX    TMP DP  RH WIND       PRES   REMARKS
ALGONA *       SUNNY     59  54  82 CALM      30.02S
CLARION *      SUNNY     61  55  82 CALM      30.01S
ESTHERVILLE    SUNNY     58  57  97 CALM      30.01F
FORT DODGE *   SUNNY     57  54  88 CALM      30.02F
MASON CITY     SUNNY     61  56  83 N3        30.02S
FOREST CITY *  SUNNY     57  57 100 CALM      30.02R
IOWA FALLS *     N/A     61  55  82 CALM      30.02S
$$

IAZ007>011-017>019-026>030-037>042-050>054-066-031400-
   NORTHEAST IOWA

CITY           SKY/WX    TMP DP  RH WIND       PRES   REMARKS
CEDAR RAPIDS   MOSUNNY   61  56  83 E3        29.99S
CHARLES CITY * SUNNY     61  59  94 CALM      30.01S
CLINTON *      MOSUNNY   59  54  82 NE6       30.01S
DECORAH *        N/A    N/A N/A N/A MISG        N/A
DUBUQUE        MOSUNNY   58  54  86 NE6       30.00F
MONTICELLO *   SUNNY     59  59 100 CALM      30.00R
OELWEIN *      SUNNY     59  55  88 E3        30.01F
WATERLOO       SUNNY     58  55  90 CALM      29.99F
$$

IAZ064-065-067-068-078-031400-
   EAST CENTRAL IOWA

CITY           SKY/WX    TMP DP  RH WIND       PRES   REMARKS
DAVENPORT      MOSUNNY   60  55  83 NE8       29.99R
IOWA CITY      MOSUNNY   63  56  78 NE5       30.00R
MT. PLEASANT * PTSUNNY   64  59  82 NE5       29.98R
MUSCATINE *    SUNNY     63  57  82 NE6       29.99R
QUAD CITIES    PTSUNNY   63  55  75 NE7       29.98R
$$

IAZ062-063-075>077-085>089-095>099-031400-
   SOUTHEAST IOWA

CITY           SKY/WX    TMP DP  RH WIND       PRES   REMARKS
BURLINGTON     CLOUDY    64  60  87 NE5       29.97R
FAIRFIELD *    SUNNY     64  59  82 NE6       29.98S
FORT MADISON * SUNNY     61  59  94 NE3       29.98R FOG
KEOKUK *       MOSUNNY   64  61  88 CALM      29.96R
OSKALOOSA *      N/A     61  57  88 NE5       30.00R
CENTERVILLE *  SUNNY     63  59  88 N6        30.00S
OTTUMWA        PTSUNNY   63  58  83 NE7       29.98R
WASHINGTON *   SUNNY     61  59  94 NE7       30.00R
$$

ABBREVIATIONS USED IN REMARKS
   TC - TEMPERATURES IN CELSIUS
  WCI - WIND CHILL INDEX
   HX - HEAT INDEX
  VSB - VISIBILITY
$$




USA.gov is the U.S. government's official web portal to all federal, state and local government web resources and services.